Orbital Elements at Epoch 2459000.5 (2020-May-31.0) TDB
Reference: JPL 12 (heliocentric ecliptic J2000)
Element | Value | Uncertainty (1-sigma) | Units |
e | .1173835264813111 | 6.9253e-08 | |
a | 2.62200705620005 | 2.2172e-08 | au |
q | 2.314226621484407 | 1.9157e-07 | au |
i | 12.11215661780215 | 6.3448e-06 | deg |
node | 152.6959615717119 | 2.0298e-05 | deg |
peri | 21.39027340628684 | 2.7911e-05 | deg |
M | 245.7931711265113 | 2.2606e-05 | deg |
tp | 2459492.470184108399 (2021-Oct-04.97018411) | 0.00010145 | TDB |
period | 1550.77649932137 4.25 | 1.967e-05 5.385e-08 | d yr |
n | .2321417690799019 | 2.9445e-09 | deg/d |
Q | 2.929787490915694 | 2.4775e-08 | au |
|
| | Orbit Determination Parameters
Additional Information
|